Iowa Falls, IA

8:19 PM CST on December 15, 2019 (GMT -0600)
Iowa Falls Municipal

Weather History for KIFA - October, 2019

Change the Weather History Date:

Thursday, October 24, 2019

  Actual Average Record
Temperature  
Mean Temperature 38 °F -  
Max Temperature 47 °F 59 °F 80 °F (1952)
Min Temperature 30 °F 38 °F 18 °F (1960)
Degree Days  
Heating Degree Days 26    
Moisture  
Dew Point 27 °F    
Average Humidity 67    
Maximum Humidity 87    
Minimum Humidity 35    
Precipitation  
Precipitation 0.00 in - - ()
Sea Level Pressure  
Sea Level Pressure 30.33 in    
Wind  
Wind Speed 7 mph ()    
Max Wind Speed 14 mph    
Max Gust Speed 22 mph    
Visibility 10.0 miles    
Events      
Averages and records for this station are not official NWS values.
T = Trace of Precipitation, MM = Missing Value Source: Averaged Metar Reports

Daily Weather History Graph

Daily Weather History Graph

Search for Another Location

Airport or City:

Astronomy

Oct. 24, 2019 Rise Set
Actual Time 7:36 AM CDT 6:17 PM CDT
Civil Twilight 7:07 AM CDT 6:46 PM CDT
Nautical Twilight 6:34 AM CDT 7:18 PM CDT
Astronomical Twilight 6:02 AM CDT 7:51 PM CDT
Moon 2:59 AM CDT (10/24) 4:51 PM CDT (10/24)
Length of Visible Light 11h 38m
Length of Day
10h 40m
Waning Crescent, 16% of the Moon is Illuminated
Oct 24
Waning Crescent
Oct 27
New
Nov 4
First Quarter
Nov 12
Full
Nov 19
Last Quarter

Hourly Weather History & Observations

Time (CDT) Temp. Windchill Dew Point Humidity Pressure Visibility Wind Dir Wind Speed Gust Speed Precip Events Conditions
12:15 AM 39.2 °F 31.6 °F 33.8 °F 81% 30.17 in 10.0 mi NW 12.7 mph - N/A   Overcast
12:35 AM 38.3 °F 31.4 °F 32.9 °F 81% 30.17 in 10.0 mi NW 10.4 mph 18.4 mph N/A   Scattered Clouds
12:55 AM 37.6 °F 29.1 °F 32.5 °F 82% 30.19 in 10.0 mi NW 13.8 mph 19.6 mph N/A   Mostly Cloudy
1:15 AM 37.4 °F 29.3 °F 32.0 °F 81% 30.21 in 10.0 mi NW 12.7 mph 18.4 mph N/A   Overcast
1:35 AM 36.9 °F 30.7 °F 32.0 °F 83% 30.22 in 10.0 mi NW 8.1 mph - N/A   Overcast
1:55 AM 36.7 °F 29.4 °F 32.0 °F 83% 30.23 in 10.0 mi WNW 10.4 mph - N/A   Overcast
2:15 AM 36.5 °F 29.7 °F 32.0 °F 84% 30.23 in 10.0 mi WNW 9.2 mph - N/A   Overcast
2:35 AM 37.2 °F 30.0 °F 32.2 °F 82% 30.24 in 10.0 mi WNW 10.4 mph - N/A   Overcast
2:55 AM 37.4 °F 30.8 °F 32.0 °F 81% 30.24 in 10.0 mi NW 9.2 mph - N/A   Overcast
3:15 AM 36.7 °F 29.4 °F 32.0 °F 83% 30.24 in 10.0 mi NW 10.4 mph - N/A   Mostly Cloudy
3:35 AM 37.2 °F 30.6 °F 32.2 °F 82% 30.25 in 10.0 mi NW 9.2 mph - N/A   Overcast
3:55 AM 37.6 °F 30.5 °F 32.4 °F 81% 30.26 in 10.0 mi NW 10.4 mph - N/A   Overcast
4:15 AM 37.8 °F 31.3 °F 32.2 °F 80% 30.26 in 10.0 mi NW 9.2 mph 16.1 mph N/A   Overcast
4:35 AM 37.4 °F 32.1 °F 32.0 °F 81% 30.26 in 10.0 mi NW 6.9 mph - N/A   Overcast
4:55 AM 36.3 °F 31.6 °F 30.9 °F 81% 30.25 in 10.0 mi NW 5.8 mph - N/A   Mostly Cloudy
5:15 AM 34.7 °F 30.6 °F 30.0 °F 83% 30.26 in 10.0 mi WNW 4.6 mph - N/A   Scattered Clouds
5:35 AM 33.6 °F 28.4 °F 29.3 °F 84% 30.26 in 10.0 mi NW 5.8 mph - N/A   Clear
5:55 AM 33.8 °F 28.6 °F 29.8 °F 85% 30.26 in 10.0 mi NW 5.8 mph - N/A   Clear
6:15 AM 33.3 °F 27.1 °F 29.3 °F 85% 30.27 in 10.0 mi NW 6.9 mph - N/A   Clear
6:35 AM 33.1 °F 28.7 °F 29.3 °F 86% 30.29 in 10.0 mi WNW 4.6 mph - N/A   Clear
6:55 AM 32.7 °F 28.3 °F 28.9 °F 86% 30.30 in 10.0 mi WSW 4.6 mph - N/A   Clear
7:35 AM 32.0 °F 26.4 °F 28.0 °F 85% 30.33 in 10.0 mi WSW 5.8 mph - N/A   Clear
7:55 AM 32.0 °F 27.5 °F 28.0 °F 85% 30.33 in 10.0 mi West 4.6 mph - N/A   Clear
8:35 AM 33.6 °F 28.4 °F 30.2 °F 87% 30.36 in 10.0 mi West 5.8 mph - N/A   Clear
8:55 AM 34.7 °F 28.8 °F 31.1 °F 87% 30.37 in 10.0 mi WNW 6.9 mph - N/A   Clear
9:15 AM 35.6 °F 29.2 °F 31.1 °F 84% 30.38 in 10.0 mi West 8.1 mph - N/A   Clear
9:35 AM 37.0 °F 31.0 °F 31.6 °F 81% 30.38 in 10.0 mi WNW 8.1 mph - N/A   Clear
9:55 AM 38.3 °F 32.5 °F 31.6 °F 77% 30.38 in 10.0 mi WNW 8.1 mph - N/A   Clear
10:15 AM 39.0 °F 32.8 °F 31.1 °F 73% 30.38 in 10.0 mi NW 9.2 mph - N/A   Clear
10:35 AM 39.9 °F 34.5 °F 28.4 °F 63% 30.40 in 10.0 mi NW 8.1 mph - N/A   Clear
10:55 AM 41.0 °F 34.7 °F 27.3 °F 58% 30.40 in 10.0 mi NNW 10.4 mph - N/A   Clear
11:15 AM 41.4 °F 35.2 °F 26.1 °F 55% 30.40 in 10.0 mi NNW 10.4 mph - N/A   Clear
11:35 AM 42.8 °F 38.0 °F 24.8 °F 49% 30.40 in 10.0 mi NNW 8.1 mph - N/A   Clear
11:55 AM 43.0 °F 38.2 °F 23.2 °F 46% 30.39 in 10.0 mi NNW 8.1 mph - N/A   Clear
12:15 PM 44.2 °F 38.8 °F 24.1 °F 45% 30.39 in 10.0 mi NW 10.4 mph - N/A   Clear
12:35 PM 44.2 °F 39.7 °F 22.6 °F 42% 30.38 in 10.0 mi NW 8.1 mph - N/A   Clear
12:55 PM 45.0 °F 41.2 °F 22.5 °F 41% 30.38 in 10.0 mi NW 6.9 mph - N/A   Clear
1:15 PM 45.5 °F 40.8 °F 21.9 °F 39% 30.38 in 10.0 mi North 9.2 mph - N/A   Clear
1:35 PM 46.2 °F 42.2 °F 21.6 °F 38% 30.37 in 10.0 mi NW 8.1 mph - N/A   Scattered Clouds
1:55 PM 46.6 °F - 22.5 °F 39% 30.36 in 10.0 mi North 4.6 mph - N/A   Scattered Clouds
2:15 PM 46.2 °F 42.7 °F 21.4 °F 37% 30.36 in 10.0 mi North 6.9 mph - N/A   Scattered Clouds
2:35 PM 46.9 °F - 21.7 °F 37% 30.36 in 10.0 mi NW 6.9 mph - N/A   Scattered Clouds
2:55 PM 47.3 °F - 22.6 °F 38% 30.36 in 10.0 mi West 9.2 mph - N/A   Scattered Clouds
3:15 PM 47.7 °F - 22.3 °F 37% 30.35 in 10.0 mi WNW 9.2 mph 21.9 mph N/A   Scattered Clouds
3:35 PM 47.7 °F - 21.7 °F 36% 30.34 in 10.0 mi West 9.2 mph - N/A   Clear
3:55 PM 47.3 °F - 21.4 °F 36% 30.34 in 10.0 mi WNW 6.9 mph - N/A   Clear
4:15 PM 47.3 °F - 20.7 °F 35% 30.33 in 10.0 mi WNW 8.1 mph - N/A   Clear
4:55 PM 47.1 °F - 21.0 °F 36% 30.33 in 10.0 mi NW 5.8 mph - N/A   Clear
5:15 PM 46.8 °F - 22.6 °F 39% 30.32 in 10.0 mi NW 9.2 mph - N/A   Clear
5:35 PM 46.0 °F 43.1 °F 22.6 °F 40% 30.33 in 10.0 mi WNW 5.8 mph - N/A   Clear
5:55 PM 44.6 °F 40.7 °F 24.1 °F 44% 30.33 in 10.0 mi WNW 6.9 mph - N/A   Clear
6:15 PM 42.8 °F 40.1 °F 24.8 °F 49% 30.34 in 10.0 mi West 4.6 mph - N/A   Clear
6:35 PM 40.3 °F - 26.1 °F 57% 30.35 in 10.0 mi Calm Calm - N/A   Clear
6:55 PM 40.1 °F - 25.7 °F 56% 30.36 in 10.0 mi Calm Calm - N/A   Clear
7:15 PM 39.2 °F - 25.5 °F 58% 30.36 in 10.0 mi Calm Calm - N/A   Clear
7:35 PM 36.5 °F - 27.1 °F 69% 30.37 in 10.0 mi Calm Calm - N/A   Clear
7:55 PM 36.5 °F - 27.1 °F 69% 30.37 in 10.0 mi Calm Calm - N/A   Clear
8:15 PM 35.1 °F - 25.9 °F 69% 30.37 in 10.0 mi Calm Calm - N/A   Clear
8:35 PM 34.9 °F - 27.1 °F 73% 30.37 in 10.0 mi Calm Calm - N/A   Clear
8:55 PM 34.9 °F - 26.4 °F 71% 30.37 in 10.0 mi Calm Calm - N/A   Clear
9:15 PM 33.4 °F - 26.4 °F 75% 30.37 in 10.0 mi Calm Calm - N/A   Scattered Clouds
9:35 PM 33.3 °F - 27.9 °F 81% 30.37 in 10.0 mi Calm Calm - N/A   Mostly Cloudy
9:55 PM 32.2 °F - 26.6 °F 80% 30.38 in 10.0 mi Calm Calm - N/A   Clear
10:15 PM 31.6 °F - 26.2 °F 80% 30.38 in 10.0 mi Calm Calm - N/A   Clear
10:35 PM 32.0 °F - 26.4 °F 80% 30.38 in 10.0 mi Calm Calm - N/A   Clear
10:55 PM 32.0 °F - 26.4 °F 80% 30.38 in 10.0 mi Calm Calm - N/A   Clear
11:15 PM 30.7 °F - 25.3 °F 80% 30.38 in 10.0 mi Calm Calm - N/A   Clear
11:35 PM 31.6 °F - 26.6 °F 82% 30.38 in 10.0 mi Calm Calm - N/A   Clear
11:55 PM 32.0 °F - 26.4 °F 80% 30.38 in 10.0 mi Calm Calm - N/A   Clear